Other Public Products
Issued by NWS Grand Forks, ND

Home | Current Version | Previous Version | Graphics & Text | Print | Product List | Glossary On
Versions: 1 2 3 4 5 6 7 8 9 10 11 12 13 14 15 16 17 18 19 20 21 22 23 24 25 26 27 28 29 30 31 32 33 34 35 36 37 38 39 40 41 42 43 44 45 46 47 48 49 50
000
FPUS83 KFGF 051710
OPUFGF
PRAIRIE TO PINES WEATHER ROUNDUP
NATIONAL WEATHER SERVICE EASTERN NORTH DAKOTA/GRAND FORKS ND
1200 PM CDT THU MAY 05 2016

 **SATELLITE DATA USED TO AUGMENT SKY COVER AT AUTOMATED STATIONS**
 *****  WEATHER ACROSS EASTERN NORTH DAKOTA  *****

CITY           SKY/WX    TMP DP  RH WIND       PRES   REMARKS
GRAND FORKS    MOSUNNY   88  43  20 W23       29.80F
GRAND FORKS AF SUNNY     86  43  22 W20G28    29.81F
GRAND CITY NWS NOT AVBL
BUXTON         NOT AVBL
DEVILS LAKE    SUNNY     82  46  28 W18       29.85F
FARGO          SUNNY     79  45  29 S12       29.88F
WAHPETON ARPT  SUNNY     81  36  19 SW17      29.91F
$$

 *****  WEATHER ACROSS CENTRAL AND WESTERN NORTH DAKOTA  *****

CITY           SKY/WX    TMP DP  RH WIND       PRES   REMARKS
JAMESTOWN      SUNNY     82  40  22 W18G26    29.88F
BISMARCK       SUNNY     81  45  28 S13       29.89F
MINOT          SUNNY     86  43  22 SW15      29.82F
MINOT AFB      SUNNY     83  46  26 SW15      29.80F
GARRISON         N/A     81  45  28 SW10      29.86F
WILLISTON      SUNNY     80  47  31 S7        29.83F
DICKINSON      SUNNY     79  44  28 SW8       29.87F
HETTINGER      SUNNY     74  47  38 S5        29.92F
$$

 *****  OTHER OBSERVATIONS NORTHEAST NORTH DAKOTA  *****

CITY           SKY/WX    TMP DP  RH WIND       PRES   REMARKS
WALHALLA       FAIR      86  46  25 W15G26    29.75S
LANGDON        FAIR      86  43  22 W22G28    29.81F
CAVALIER       FAIR      84  46  26 W22G29    29.75F
GRAFTON        FAIR      82  48  30 W24G32    29.80S
CANDO          FAIR      84  41  21 W20       29.84F
FORT TOTTEN      N/A     83  41  22 W9        29.95S
ROLLA            N/A     81  43  26 W16       29.83S
RUGBY          FAIR      82  45  26 W17G25    29.83S
 ***** THE ABOVE OBSERVATIONS ARE NON NWS ARE NOT QUALITY
        CONTROLLED AND MAY MIS-REPORT RAIN FOR SNOW...
$$

 *****  OTHER OBSERVATIONS SOUTHEAST NORTH DAKOTA *****

CITY           SKY/WX    TMP DP  RH WIND       PRES   REMARKS
COOPERSTOWN    NOT AVBL
VALLEY CITY    FAIR      82  41  23 W20G26    29.90S
OAKES            N/A    N/A N/A N/A MISG        N/A
GWINNER        FAIR      79  45  29 SW22      29.91F
SHEYENNE NWR     N/A     81  43  26 SW13      29.95S
BUFFALO        NOT AVBL
WYNDMERE         N/A     82  41  23 SW15        N/A
 ***** THE ABOVE OBSERVATIONS ARE NON NWS ARE NOT QUALITY
       CONTROLLED AND MAY MIS-REPORT RAIN FOR SNOW...
$$

  *****  WEATHER ACROSS NORTHERN MINNESOTA  *****

CITY           SKY/WX    TMP DP  RH WIND       PRES   REMARKS
FLAG ISLAND    SUNNY     54  45  71 S13       29.73F
WARROAD        SUNNY     77  52  41 SW18      29.77F
ROSEAU         SUNNY     81  48  32 SW16      29.77F
HALLOCK        SUNNY     88  39  18 W21G28    29.74F
THF RVR FALLS  SUNNY     79  43  27 SW16G22   29.84F
HALSTAD        NOT AVBL
FOSSTON        SUNNY     77  37  24 SW16G24   29.87F
BAUDETTE       SUNNY     76  41  28 SW14G23   29.79F
WASKISH        SUNNY     73  43  33 SW14G21   29.83F
CROOKSTON      NOT AVBL
$$
  *****  WEATHER ACROSS CENTRAL AND WEST MINNESOTA  *****

CITY           SKY/WX    TMP DP  RH WIND       PRES   REMARKS
BEMIDJI        SUNNY     76  39  26 SW8G16    29.88F
PARK RAPIDS    SUNNY     76  36  23 SW14      29.92F
WADENA         SUNNY     73  39  29 S12G17    29.94F
DETROIT LAKES  SUNNY     73  39  29 SW10      29.93F
MOORHEAD       SUNNY     79  43  27 SW10G17   29.89F
FERGUS FALLS   SUNNY     77  43  29 SW12G20   29.90F
ELBOW LAKE     FAIR      75  43  31 SW17      29.96S
MORRIS MN      SUNNY     75  41  29 S14       29.96F
STAPLES        SUNNY     72  34  25 S10G18    29.95F
WHEATON        SUNNY     82  46  28 SW12      29.95F
$$
  *****  WEATHER ELSEWHERE ACROSS MINNESOTA  *****

CITY           SKY/WX    TMP DP  RH WIND       PRES   REMARKS
DULUTH         MOSUNNY   63  35  35 SW15      29.94F
INTRNTL FALLS  SUNNY     75  38  26 W15G22    29.81F
ELY            SUNNY     61  32  33 SW9       29.90F
CLOQUET        MOSUNNY   63  30  29 SW14      29.95F
BRAINERD       SUNNY     69  33  26 S13G21    29.96F
HIBBING        SUNNY     64  36  35 VRB7      29.91F
ALEXANDRIA     SUNNY     73  36  25 S13       29.98F
SAINT CLOUD    SUNNY     68  32  26 S12       30.00F
MINNEAPOLIS    MOSUNNY   64  31  28 S9        30.03F
$$

  *****  WEATHER ACROSS SOUTH DAKOTA  *****

CITY           SKY/WX    TMP DP  RH WIND       PRES   REMARKS
SIOUX FALLS    MOSUNNY   69  46  43 S8        30.04F
BROOKINGS      SUNNY     73  43  33 S9        30.02S
WATERTOWN      SUNNY     75  41  29 S12       29.99F
HURON          SUNNY     77  44  30 SW13      29.98F
SISSETON         N/A     79  42  26 W20G31    29.91F
ABERDEEN       SUNNY     82  41  23 S14G20    29.94F
MITCHELL       SUNNY     76  44  32 S12       30.01F
PIERRE         SUNNY     80  46  30 S16       29.93F
MOBRIDGE       SUNNY     78  48  34 S15       29.89F
RAPID CITY     SUNNY     75  51  43 SE7       29.94F
$$

  *****  SOME WEATHER IN NEARBY STATES *****

CITY           SKY/WX    TMP DP  RH WIND       PRES   REMARKS
GLASGOW MT     CLOUDY    71  47  42 SW6       29.82R
GREAT FALLS MT SUNNY     70  41  34 W6        29.91S
CHEYENNE WY    CLOUDY    70  27  20 W8        30.15F
SCOTTSBLUFF NE CLOUDY    73  43  33 CALM      30.04S
OMAHA NE       MOSUNNY   69  42  37 CALM      30.09S
DES MOINES IA  MOSUNNY   64  32  30 CALM      30.10F
DAVENPORT IA   SUNNY     58  38  47 N7        30.08S
CHICAGO IL     SUNNY     58  42  55 N12       30.01S
EAU CLAIRE WI    N/A    N/A N/A N/A MISG        N/A
LA CROSSE WI   SUNNY     59  36  42 NW3       30.07S
$$

  *****  SOME NATIONAL WEATHER *****

CITY           SKY/WX    TMP DP  RH WIND       PRES   REMARKS
LA GUARDIA NY  CLOUDY    54  45  71 NE15      29.68F
RALEIGH NC     TSTM      53  51  93 NW10      29.59R FOG
ATLANTA GA     PTSUNNY   60  36  40 NW24G30   29.80S
NEW ORLEANS LA SUNNY     76  55  48 N8        29.95F
OKLAHOMA CITY  SUNNY     75  40  28 N6        30.12F
ALBUQUERQUE NM MOSUNNY   72  24  16 VRB3      30.21F
SALT LAKE CITY PTSUNNY   78  32  18 S8        29.91F
LOS ANGELES CA PTSUNNY   63  53  70 W7        29.92S
BOISE ID       CLOUDY    61  45  55 W5        29.87S
SEATTLE WA     PTSUNNY   58  45  62 NE8       30.06R
$$

*** WEATHER ACROSS MANITOBA...SASKATCHEWAN AND ONTARIO ***
                ***ONTARIO***

CITY           SKY/WX    TMP DP  RH WIND       PRES   REMARKS
GERALDTON      PTSUNNY   61  32  33 SW12G18   29.83F
THUNDER BAY    PTSUNNY   59  36  41 E8        29.89F
SIOUX LOOKOUT  PTSUNNY   70  41  35 SW14      29.74F
TORONTO        PTSUNNY   55  46  71 S7        29.83F
BIG TROUT LK   SUNNY     64  37  36 NW7       29.67R
PICKLE LAKE    PTSUNNY   64  37  36 W9G20     29.72R
DRYDEN         SUNNY     72  37  28 SW17G24   29.74F
KENORA         MOSUNNY   66  39  37 SW17G24   29.75F
$$
                *** MANITOBA***

CITY           SKY/WX    TMP DP  RH WIND       PRES   REMARKS
BRANDON        PTSUNNY   84  45  24 W13       29.76S
DAUPHIN        SUNNY     90  34  13 W18G25    29.67S
ISLAND LAKE    PTSUNNY   66  41  39 S6        29.66S
PILOT MOUND      N/A     88  39  18 W10G18      N/A
THE PAS        CLOUDY    72  41  33 N6        29.59S
THOMPSON       PTSUNNY   46  30  53 NE16G26   29.76R
WINNIPEG       PTSUNNY   88  41  19 NW15G21   29.69S
LYNN LAKE      PTSUNNY   45  32  61 E10       29.75R
CHURCHILL      PTSUNNY   25  18  74 NE7       29.96S WCI  17
GILLAM         CLOUDY    36  18  48 NE13G18   29.86R
$$
                ***SASKATCHEWAN***

CITY           SKY/WX    TMP DP  RH WIND       PRES   REMARKS
ESTEVAN        CLOUDY    86  45  23 S10       29.79F
KINDERSLEY     PTSUNNY   70  41  35 NW16G24   29.77S
LLOYDMINSTER   PTSUNNY   59  37  44 N18G25    29.87R
PRINCE ALBERT  CLOUDY    73  45  35 N10G17    29.70S SMOKE
REGINA         PTSUNNY   86  37  17 S10       29.74F
YORKTON        SUNNY     88  39  18 W17G24    29.70F  C1F1C2F2C3F3C4F4C5F5C6F6C7F7C8F8C9F9CaFaCbFbCcFcCdFdCe!



USA.gov is the U.S. government's official web portal to all federal, state and local government web resources and services.